Location: Berlin
(52.5170°N, 13.4000°E)
Time: 22:01:46
(UTC+02:00)

ISS - Pass Details

Date: 20 July 2018
Orbit: 402 x 408 km, 51.6° (Epoch: 17 July)

Event Time Altitude Azimuth Distance (km) Brightness Sun altitude
Rises 23:45:28 0° 245° (WSW) 2,319 0.0 -14.5°
Reaches altitude 10° 23:47:34 10° 241° (WSW) 1,462 -1.1 -14.6°
Maximum altitude 23:50:46 54° 163° (SSE) 503 -3.8 -14.8°
Drops below altitude 10° 23:54:00 10° 85° (E) 1,469 -1.1 -15.0°
Sets 23:56:07 0° 81° (E) 2,332 -0.1 -15.1°
